When you browse on this site, cookies collect data to enhance your experience and personalize the content and advertising you see.
Visit our Privacy Policy to learn more. By continuing to use the site, you agree to this use of cookies and data.
  • In United Kingdom
  • List of Countries
  • For 7 days
  • Water Temperature
  • Weather Map
  • Weather Widgets
  • user-avatar
    Login

    Hourly Weather Sunny Beach

    Today, 26 February, Wednesday

    Time Temperature Precipitation Wind Pressure Humidity
    00:00 +6°C° 0 mm 5 mps 731 mmHg 63%
    01:00 +6°C° 0 mm 5 mps 731 mmHg 64%
    02:00 +5°C° 0 mm 6 mps 730 mmHg 65%
    03:00 +5°C° 0 mm 6 mps 730 mmHg 65%
    04:00 +5°C° 0 mm 7 mps 729 mmHg 65%
    05:00 +6°C° 0 mm 7 mps 729 mmHg 66%
    06:00 +6°C° 0 mm 7 mps 729 mmHg 68%
    07:00 +7°C° 0 mm 6 mps 729 mmHg 70%
    08:00 +7°C° 0 mm 6 mps 729 mmHg 73%
    09:00 +9°C° 0 mm 7 mps 729 mmHg 71%
    10:00 +11°C° 0 mm 7 mps 729 mmHg 69%
    11:00 +13°C° 0 mm 8 mps 729 mmHg 68%
    12:00 +13°C° 0 mm 8 mps 728 mmHg 67%
    13:00 +15°C° 0 mm 8 mps 728 mmHg 65%
    14:00 +16°C° 0 mm 9 mps 728 mmHg 64%
    15:00 +15°C° 0 mm 9 mps 727 mmHg 67%
    16:00 +13°C° 0 mm 9 mps 727 mmHg 69%
    17:00 +13°C° 0 mm 9 mps 726 mmHg 71%
    18:00 +12°C° 0 mm 9 mps 726 mmHg 74%
    19:00 +12°C° 0 mm 10 mps 726 mmHg 76%
    20:00 +11°C° 0 mm 10 mps 726 mmHg 79%
    21:00 +11°C° 0 mm 10 mps 726 mmHg 79%
    22:00 +11°C° 0 mm 11 mps 726 mmHg 79%
    23:00 +11°C° 0 mm 11 mps 726 mmHg 79%

    Tomorrow, 27 February, Thursday

    Time Temperature Precipitation Wind Pressure Humidity
    00:00 +11°C° 0 mm 11 mps 726 mmHg 79%
    01:00 +11°C° 0 mm 11 mps 726 mmHg 80%
    02:00 +11°C° 0 mm 10 mps 726 mmHg 80%
    03:00 +11°C° 0 mm 10 mps 726 mmHg 79%
    04:00 +11°C° 0 mm 10 mps 725 mmHg 79%
    05:00 +11°C° 0 mm 10 mps 725 mmHg 78%
    06:00 +11°C° 0 mm 10 mps 725 mmHg 77%
    07:00 +11°C° 0 mm 10 mps 726 mmHg 76%
    08:00 +11°C° 0 mm 9 mps 726 mmHg 74%
    09:00 +12°C° 0.1 mm 10 mps 726 mmHg 70%
    10:00 +12°C° 0.1 mm 10 mps 725 mmHg 66%
    11:00 +13°C° 0.1 mm 11 mps 725 mmHg 61%
    12:00 +13°C° 0.1 mm 11 mps 725 mmHg 59%
    13:00 +12°C° 0.1 mm 11 mps 726 mmHg 57%
    14:00 +12°C° 0.1 mm 11 mps 726 mmHg 55%
    15:00 +11°C° 0 mm 9 mps 726 mmHg 54%
    16:00 +10°C° 0 mm 6 mps 726 mmHg 53%
    17:00 +11°C° 0 mm 4 mps 726 mmHg 53%
    18:00 +8°C° 0 mm 4 mps 727 mmHg 58%
    19:00 +7°C° 0 mm 4 mps 728 mmHg 64%
    20:00 +5°C° 0 mm 4 mps 728 mmHg 70%
    21:00 +4°C° 0 mm 4 mps 729 mmHg 67%
    22:00 +3°C° 0 mm 5 mps 730 mmHg 64%
    23:00 +2°C° 0 mm 6 mps 730 mmHg 61%

    Day after tomorrow, 28 February, Friday

    Time Temperature Precipitation Wind Pressure Humidity
    00:00 +2°C° 0 mm 5 mps 731 mmHg 62%
    01:00 +3°C° 0 mm 4 mps 731 mmHg 63%
    02:00 +2°C° 0 mm 3 mps 732 mmHg 65%
    03:00 +2°C° 0 mm 3 mps 732 mmHg 66%
    04:00 +3°C° 0 mm 2 mps 732 mmHg 67%
    05:00 +2°C° 0 mm 2 mps 732 mmHg 67%
    06:00 +2°C° 0 mm 2 mps 733 mmHg 66%
    07:00 +3°C° 0 mm 2 mps 733 mmHg 65%
    08:00 +3°C° 0 mm 2 mps 734 mmHg 64%
    09:00 +5°C° 0 mm 2 mps 734 mmHg 58%
    10:00 +5°C° 0 mm 3 mps 734 mmHg 52%
    11:00 +8°C° 0 mm 3 mps 733 mmHg 46%
    12:00 +7°C° 0 mm 4 mps 733 mmHg 47%
    13:00 +8°C° 0 mm 4 mps 733 mmHg 48%
    14:00 +8°C° 0 mm 5 mps 732 mmHg 49%
    15:00 +8°C° 0 mm 4 mps 732 mmHg 53%
    16:00 +9°C° 0 mm 3 mps 732 mmHg 57%
    17:00 +9°C° 0 mm 3 mps 731 mmHg 61%
    18:00 +8°C° 0 mm 3 mps 732 mmHg 64%
    19:00 +7°C° 0 mm 3 mps 732 mmHg 67%
    20:00 +5°C° 0 mm 3 mps 733 mmHg 70%
    21:00 +4°C° 0.2 mm 3 mps 733 mmHg 73%
    22:00 +4°C° 0.2 mm 3 mps 733 mmHg 75%
    23:00 +4°C° 0.2 mm 3 mps 734 mmHg 77%

    29 February, Saturday

    Time Temperature Precipitation Wind Pressure Humidity
    00:00 +4°C° 0 mm 4 mps 734 mmHg 75%
    01:00 +2°C° 0 mm 5 mps 734 mmHg 73%
    02:00 +2°C° 0 mm 5 mps 734 mmHg 71%
    03:00 +1°C° 0 mm 5 mps 734 mmHg 69%
    04:00 +1°C° 0 mm 5 mps 735 mmHg 68%
    05:00 0°C° 0 mm 5 mps 735 mmHg 67%
    06:00 0°C° 0 mm 5 mps 735 mmHg 66%
    07:00 0°C° 0 mm 5 mps 736 mmHg 65%
    08:00 +1°C° 0 mm 5 mps 737 mmHg 64%
    09:00 +2°C° 0 mm 5 mps 737 mmHg 59%
    10:00 +3°C° 0 mm 5 mps 737 mmHg 54%
    11:00 +5°C° 0 mm 6 mps 738 mmHg 49%
    12:00 +6°C° 0 mm 5 mps 738 mmHg 45%
    13:00 +7°C° 0 mm 5 mps 738 mmHg 41%
    14:00 +8°C° 0 mm 4 mps 738 mmHg 38%
    15:00 +9°C° 0 mm 3 mps 738 mmHg 40%
    16:00 +8°C° 0 mm 3 mps 738 mmHg 42%
    17:00 +8°C° 0 mm 2 mps 737 mmHg 43%
    18:00 +7°C° 0 mm 2 mps 738 mmHg 46%
    19:00 +7°C° 0 mm 1 mps 738 mmHg 48%
    20:00 +6°C° 0 mm 1 mps 738 mmHg 51%
    21:00 +5°C° 0 mm 1 mps 738 mmHg 52%
    22:00 +4°C° 0 mm 2 mps 738 mmHg 54%
    23:00 +4°C° 0 mm 2 mps 738 mmHg 56%

    1 March, Sunday

    Time Temperature Precipitation Wind Pressure Humidity
    00:00 +3°C° 0 mm 3 mps 738 mmHg 58%
    01:00 +3°C° 0 mm 3 mps 738 mmHg 60%
    02:00 +3°C° 0 mm 3 mps 737 mmHg 62%
    03:00 +2°C° 0 mm 3 mps 737 mmHg 62%
    04:00 +2°C° 0 mm 3 mps 737 mmHg 61%
    05:00 +2°C° 0 mm 3 mps 737 mmHg 60%
    06:00 +3°C° 0 mm 3 mps 737 mmHg 60%
    07:00 +3°C° 0 mm 3 mps 737 mmHg 61%
    08:00 +4°C° 0 mm 3 mps 737 mmHg 61%
    09:00 +5°C° 0 mm 3 mps 738 mmHg 59%
    10:00 +7°C° 0 mm 4 mps 738 mmHg 57%
    11:00 +9°C° 0 mm 5 mps 738 mmHg 54%
    12:00 +10°C° 0 mm 5 mps 737 mmHg 55%
    13:00 +12°C° 0 mm 5 mps 737 mmHg 55%
    14:00 +12°C° 0 mm 5 mps 737 mmHg 55%
    15:00 +12°C° 0 mm 5 mps 736 mmHg 57%
    16:00 +12°C° 0 mm 4 mps 736 mmHg 59%
    17:00 +11°C° 0 mm 4 mps 735 mmHg 61%
    18:00 +10°C° 0 mm 4 mps 735 mmHg 65%
    19:00 +8°C° 0 mm 4 mps 735 mmHg 69%
    20:00 +6°C° 0 mm 4 mps 735 mmHg 73%
    21:00 +6°C° 0 mm 4 mps 735 mmHg 76%
    22:00 +6°C° 0 mm 4 mps 735 mmHg 80%
    23:00 +6°C° 0 mm 4 mps 735 mmHg 83%

    2 March, Monday

    Time Temperature Precipitation Wind Pressure Humidity
    00:00 +7°C° 0 mm 4 mps 735 mmHg 84%
    01:00 +7°C° 0 mm 4 mps 734 mmHg 84%
    02:00 +7°C° 0 mm 5 mps 734 mmHg 85%
    03:00 +7°C° 0 mm 5 mps 734 mmHg 85%
    04:00 +7°C° 0 mm 5 mps 733 mmHg 85%
    05:00 +7°C° 0 mm 5 mps 733 mmHg 85%
    06:00 +8°C° 0 mm 5 mps 733 mmHg 85%
    07:00 +8°C° 0 mm 5 mps 732 mmHg 85%
    08:00 +9°C° 0 mm 5 mps 732 mmHg 85%
    09:00 +10°C° 0 mm 6 mps 732 mmHg 82%
    10:00 +11°C° 0 mm 7 mps 732 mmHg 79%
    11:00 +12°C° 0 mm 7 mps 732 mmHg 76%
    12:00 +14°C° 0.1 mm 7 mps 732 mmHg 70%
    13:00 +15°C° 0.1 mm 7 mps 732 mmHg 65%
    14:00 +16°C° 0.1 mm 6 mps 731 mmHg 60%
    15:00 +15°C° 0.5 mm 5 mps 731 mmHg 62%
    16:00 +15°C° 0.5 mm 5 mps 731 mmHg 65%
    17:00 +14°C° 0.5 mm 4 mps 731 mmHg 68%
    18:00 +13°C° 0.1 mm 3 mps 731 mmHg 73%
    19:00 +12°C° 0.1 mm 3 mps 732 mmHg 78%
    20:00 +11°C° 0.1 mm 3 mps 732 mmHg 83%
    21:00 +10°C° 0 mm 2 mps 732 mmHg 85%
    22:00 +10°C° 0 mm 2 mps 732 mmHg 88%
    23:00 +10°C° 0 mm 2 mps 732 mmHg 90%
    Show more